Hourly Data Report for March 26, 2011

HALIFAX STANFIELD INT'L A
NOVA SCOTIA

44°52'48.060" N
63°30'00.050" W
145.40 m
8202250
71395
YHZ

Download Data

Hourly Data (March 2011)
Hourly Data Report for March 26, 2011
TIME
LST
Temp Definition
°C
Dew Point Definition
°C
Rel Hum Definition
%
Precip. Amount Definition
mm

Wind Dir Definition
10's deg

Wind Spd Definition
km/h
Visibility Definition
km
Stn Press Definition
kPa
Hmdx Definition


Wind Chill Definition


Weather Definition


00:00 -4.9 -7.2 84   24 15 24.1 98.56   -10 Clear
01:00 -5.1 -7.7 82   25 9 24.1 98.55   -9 Clear
02:00 -5.3 -8.1 81   27 13 24.1 98.51   -10 Clear
03:00 -6.0 -8.7 81   25 11 24.1 98.48   -11 Clear
04:00 -6.8 -9.2 83   27 9 24.1 98.45   -11 Clear
05:00 -6.9 -9.3 83   25 11 24.1 98.46   -12 Clear
06:00 -7.7 -9.9 84   23 13 24.1 98.44   -13 Clear
07:00 -5.8 -8.4 82   25 15 24.1 98.41   -12 Clear
08:00 -4.2 -7.4 78   26 15 24.1 98.38   -10 Clear
09:00 -2.6 -7.1 71   30 19 24.1 98.32   -8 Mainly Clear
10:00 -2.1 -7.9 64   28 24 24.1 98.26   -8 Mostly Cloudy
11:00 -1.1 -8.7 56   29 28 24.1 98.16   -8 Mainly Clear
12:00 0.0 -9.5 49   26 24 24.1 98.07   -6 Mostly Cloudy
13:00 1.3 -9.5 44   27 33 24.1 97.96     Mostly Cloudy
14:00 -0.5 -12.5 40   26 28 24.1 97.88   -7 Mostly Cloudy
15:00 0.5 -11.3 41   29 24 24.1 97.83     Mostly Cloudy
16:00 -1.1 -10.9 47   29 30 24.1 97.82   -8 Mostly Cloudy
17:00 -1.5 -11.0 48   27 24 24.1 97.83   -8 Mostly Cloudy
18:00 -2.0 -11.5 48   27 20 24.1 97.85   -8 Mostly Cloudy
19:00 -2.5 -11.2 51   27 22 24.1 97.87   -9 Mostly Cloudy
20:00 -2.9 -12.8 46   27 24 24.1 97.91   -10 Mainly Clear
21:00 -3.3 -14.0 43   27 17 24.1 97.89   -9 Mainly Clear
22:00 -3.1 -13.9 43   29 37 24.1 97.87   -11 Mainly Clear
23:00 -3.3 -13.7 44   29 33 24.1 97.87   -11 Mainly Clear

Notes on Data Quality.

Legend

  • E = Estimated
  • M = Missing
  • NA = Not Available*
  • [empty] = Indicates an unobserved value
Date modified: